Overview Statistics Trail Chart Weather Telemetry Raw packets
 

This is the latest recevied weather packets stored in our database for station/object SO5BO-13. If no packets are shown the sender has not sent any weather packets the latest 10 day(s).

<< 2 3 4 5 6 7 8 >>
Time Temp. Humidity Pressure Rain* Wind** Luminosity Snow
1788412661 13.89° C 92% 1019.4 hPa 0 mm - 41 W/m² -
1788412362 13.89° C 92% 1019.3 hPa 0 mm - 36 W/m² -
1788412062 13.89° C 92% 1019.3 hPa 0 mm - 33 W/m² -
1788411762 13.89° C 92% 1019.3 hPa 0 mm - 34 W/m² -
1788411462 13.89° C 92% 1019.3 hPa 0 mm - 30 W/m² -
1788411162 13.33° C 92% 1019.2 hPa 0 mm - 27 W/m² -
1788410886 13.33° C 92% 1019.3 hPa 0 mm - 25 W/m² -
1788410562 13.33° C 92% 1019.3 hPa 0 mm - 25 W/m² -
1788410262 13.33° C 92% 1019.4 hPa 0 mm - 21 W/m² -
1788409962 13.33° C 91% 1019.3 hPa 0 mm - 18 W/m² -
1788409662 13.33° C 91% 1019.5 hPa 0 mm - 16 W/m² -
1788409362 13.33° C 91% 1019.4 hPa 0 mm - 13 W/m² -
1788409062 13.33° C 91% 1019.5 hPa 0 mm - 11 W/m² -
1788408762 13.89° C 91% 1019.2 hPa 0 mm - 9 W/m² -
1788408462 13.89° C 91% 1019.2 hPa 0 mm - 7 W/m² -
1788408162 13.89° C 91% 1019.2 hPa 0 mm - 5 W/m² -
1788407862 13.89° C 91% 1019.3 hPa 0 mm - 4 W/m² -
1788407562 13.89° C 91% 1019.3 hPa 0 mm - 3 W/m² -
1788407262 13.89° C 91% 1019.4 hPa 0 mm - 2 W/m² -
1788406962 13.89° C 91% 1019.3 hPa 0 mm - 1 W/m² -
1788406662 13.89° C 91% 1019.1 hPa 0 mm - 0 W/m² -
1788406362 14.44° C 91% 1019.1 hPa 0 mm - 0 W/m² -
1788406062 14.44° C 91% 1019.2 hPa 0 mm - 0 W/m² -
1788405762 14.44° C 91% 1019.2 hPa 0 mm - 0 W/m² -
1788405462 14.44° C 91% 1019.3 hPa 0 mm - 0 W/m² -

* Rain latest hour (hover to see other rain measurements)
** Current wind speed in m/s (hover to see current wind gust speed)